Date,TemperatureHighF,TemperatureAvgF,TemperatureLowF,DewpointHighF,DewpointAvgF,DewpointLowF,HumidityHigh,HumidityAvg,HumidityLow,PressureMaxIn,PressureMinIn,WindSpeedMaxMPH,WindSpeedAvgMPH,GustSpeedMaxMPH,PrecipitationSumIn
2013-1-1,16,8,-1,6,2,-5,82,75,62,30.37,30.27,7,2,10,0.00
2013-1-2,27,17,5,25,12,1,90,81,73,30.27,30.11,10,3,13,0.00
2013-1-3,29,19,12,27,14,7,91,82,77,30.41,30.18,16,7,19,0.00
2013-1-4,34,24,12,24,18,8,87,79,67,30.34,30.24,18,5,23,0.01
2013-1-5,38,28,17,33,24,15,94,86,79,30.25,29.99,14,5,26,0.01
2013-1-6,25,19,14,18,14,11,95,83,70,30.36,30.05,17,5,21,0.00
2013-1-7,42,30,15,30,23,12,89,75,59,30.33,30.08,21,5,26,0.00
2013-1-8,41,34,24,33,29,21,91,80,72,30.09,29.95,14,4,22,0.00
2013-1-9,40,35,28,32,30,26,90,81,69,30.50,30.06,12,5,22,0.00
2013-1-10,38,33,28,35,29,24,97,86,69,30.49,29.80,17,5,20,0.14
2013-1-11,54,44,36,48,43,35,100,95,78,29.81,29.57,17,6,25,0.03
2013-1-12,54,29,18,47,22,10,88,74,65,30.11,29.59,21,11,31,0.01
2013-1-13,17,14,10,9,7,3,78,74,69,30.38,30.02,17,8,22,0.00
2013-1-14,28,18,8,13,9,4,83,70,52,30.55,30.37,10,2,14,0.00
2013-1-15,33,23,14,17,13,10,92,68,46,30.48,30.15,10,3,14,0.00
2013-1-16,41,31,20,36,23,12,90,73,65,30.19,29.91,19,7,23,0.00
2013-1-17,30,24,17,25,16,10,86,71,47,30.48,30.19,12,4,15,0.00
2013-1-18,54,40,24,35,29,20,84,67,48,30.44,29.91,22,8,33,0.00
2013-1-19,51,39,16,36,29,5,77,68,55,30.20,29.80,29,10,39,0.00
2013-1-20,16,12,8,9,5,1,79,73,65,30.43,30.21,17,8,28,0.00
2013-1-21,11,4,0,4,-4,-11,77,67,56,30.44,30.34,20,10,24,0.00
2013-1-22,13,7,-1,3,-2,-7,79,66,56,30.52,30.41,11,4,17,0.00
2013-1-23,28,17,7,15,7,-3,72,64,56,30.55,30.21,18,7,27,0.00
2013-1-24,20,11,3,10,-1,-7,67,58,42,30.73,30.34,13,6,17,0.00
2013-1-25,32,23,12,21,12,4,73,63,52,30.35,30.08,21,8,27,0.00
2013-1-26,30,19,6,16,9,1,83,65,47,30.47,30.32,13,4,19,0.00
2013-1-27,38,32,29,38,27,15,97,82,57,30.32,29.82,15,6,22,0.03
2013-1-28,44,38,33,43,37,33,98,97,97,29.98,29.68,11,4,17,0.06
2013-1-29,59,44,34,58,43,32,100,96,90,29.69,29.50,15,6,26,0.33
2013-1-30,34,24,14,33,22,11,96,93,86,29.83,29.39,23,11,34,0.00
2013-1-31,16,6,-1,13,1,-7,92,78,70,30.40,29.83,25,11,28,0.00
2013-2-1,16,3,-6,12,-3,-11,84,75,65,30.49,30.17,19,6,19,0.00
2013-2-2,25,17,14,20,12,9,90,81,73,30.22,30.06,15,4,22,0.00
2013-2-3,24,20,14,20,15,9,92,81,70,30.19,29.95,16,5,24,0.00
2013-2-4,26,21,14,21,17,11,89,82,76,30.05,29.86,12,4,18,0.00
2013-2-5,37,27,16,30,23,13,89,83,74,30.17,29.86,15,6,26,0.00
2013-2-6,40,30,16,35,26,14,93,85,71,30.22,30.03,10,3,15,0.00
2013-2-7,37,35,30,36,33,27,96,93,85,30.17,29.93,16,4,20,0.28
2013-2-8,30,29,28,27,25,24,91,87,82,30.40,30.17,14,5,19,0.00
2013-2-9,32,29,27,29,26,24,93,89,84,30.37,30.01,16,7,25,0.00
2013-2-10,48,38,31,47,36,29,98,92,69,30.01,29.34,22,9,35,0.43
2013-2-11,34,30,26,29,24,20,85,77,72,30.14,29.53,36,16,41,0.01
2013-2-12,39,30,24,27,23,18,87,75,60,30.17,29.91,15,5,23,0.00
2013-2-13,44,36,27,33,29,25,91,78,65,29.91,29.68,13,4,15,0.00
2013-2-14,42,36,24,33,29,14,92,78,62,30.13,29.68,17,9,27,0.00
2013-2-15,26,22,16,16,13,9,78,68,54,30.33,30.14,16,8,23,0.00
2013-2-16,24,18,12,16,12,7,85,77,67,30.33,30.22,9,4,16,0.00
2013-2-17,37,26,14,25,18,10,87,74,58,30.23,29.82,22,7,24,0.00
2013-2-18,49,33,15,36,27,7,91,79,61,29.84,29.56,22,10,33,0.01
2013-2-19,18,11,5,7,3,-2,77,70,61,30.40,29.84,27,13,33,0.00
2013-2-20,26,14,3,14,5,-3,80,70,53,30.51,30.41,10,4,14,0.00
2013-2-21,26,21,14,24,17,9,94,83,75,30.45,29.96,19,9,29,0.00
2013-2-22,30,26,23,29,24,20,94,90,84,30.00,29.83,17,7,20,0.05
2013-2-23,29,23,15,21,18,12,88,80,70,30.04,29.97,13,5,18,0.00
2013-2-24,36,22,9,26,17,6,91,82,64,30.17,30.04,8,1,10,0.00
2013-2-25,40,31,22,31,26,19,91,83,68,30.17,29.96,11,3,14,0.00
2013-2-26,35,33,30,31,29,27,96,86,75,29.95,29.67,15,8,24,0.00
2013-2-27,33,31,29,31,30,28,96,95,92,29.91,29.73,13,8,21,0.08
2013-2-28,35,31,27,30,28,25,92,88,77,30.16,29.92,15,7,18,0.01
2013-3-1,29,27,25,25,22,18,94,81,66,30.27,30.16,11,5,16,0.01
2013-3-2,20,17,14,14,12,11,87,83,76,30.29,30.26,4,1,6,0.00
2013-3-3,32,21,7,19,13,4,91,74,52,30.26,30.08,9,3,13,0.00
2013-3-4,32,28,23,26,23,17,92,82,69,30.11,29.93,20,10,30,0.01
2013-3-5,32,29,26,27,26,22,94,88,81,30.25,29.96,17,7,22,0.14
2013-3-6,27,23,14,23,19,12,92,83,76,30.42,30.24,14,6,19,0.00
2013-3-7,29,19,2,23,15,-1,91,86,76,30.48,30.41,9,3,13,0.03
2013-3-8,40,30,19,32,26,17,92,84,72,30.45,30.22,15,6,19,0.03
2013-3-9,40,37,34,39,36,31,97,94,88,30.22,29.71,13,6,24,1.29
2013-3-10,40,38,35,40,37,34,98,97,97,29.72,29.54,17,3,20,0.67
2013-3-11,35,32,27,34,29,23,97,91,81,29.90,29.62,16,7,24,0.00
2013-3-12,33,28,24,30,22,18,90,80,68,30.17,29.90,21,10,29,0.01
2013-3-13,32,25,19,19,16,14,83,71,49,30.41,30.17,14,7,20,0.00
2013-3-14,48,34,23,35,27,17,89,76,57,30.36,30.07,11,4,21,0.00
2013-3-15,44,36,30,38,33,28,95,88,80,30.06,29.73,10,3,16,0.00
2013-3-16,34,32,27,34,29,21,100,88,77,30.19,29.77,18,7,25,0.00
2013-3-17,35,29,24,27,22,16,85,75,63,30.21,29.92,16,9,25,0.00
2013-3-18,34,28,18,32,24,11,94,84,71,29.93,29.68,25,10,33,0.09
2013-3-19,29,21,14,19,13,7,80,70,60,30.21,29.91,26,11,26,0.00
2013-3-20,23,18,12,12,8,4,74,66,56,30.26,30.15,23,12,31,0.00
2013-3-21,31,21,10,18,12,5,83,69,52,30.16,30.05,9,3,11,0.00
2013-3-22,40,29,17,25,19,13,85,69,49,30.11,30.03,6,2,9,0.00
2013-3-23,43,34,25,29,25,22,90,70,46,30.12,30.01,8,2,12,0.00
2013-3-24,32,30,28,29,28,27,95,93,88,30.05,29.82,16,6,19,0.02
2013-3-25,35,31,28,28,26,22,95,82,70,30.20,29.90,18,9,25,0.02
2013-3-26,40,33,26,29,26,23,89,76,55,30.32,30.20,12,5,16,0.00
2013-3-27,47,37,28,30,27,23,89,68,47,30.36,30.29,9,2,9,0.00
2013-3-28,51,39,28,35,30,23,86,69,50,30.36,30.26,8,1,11,0.00
2013-3-29,58,45,33,38,34,28,85,66,44,30.30,30.17,7,1,11,0.00
2013-3-30,53,45,38,46,40,32,96,82,71,30.17,29.86,15,5,22,0.02
2013-3-31,49,40,32,43,34,23,97,81,55,30.02,29.83,20,8,26,0.01
2013-4-1,37,31,25,24,20,18,83,67,50,30.27,30.02,15,7,22,0.00
2013-4-2,41,32,24,24,21,17,86,65,41,30.36,30.27,16,6,22,0.00
2013-4-3,48,35,23,24,21,18,85,60,33,30.45,30.28,13,3,15,0.00
2013-4-4,59,43,30,42,30,21,82,61,41,30.27,30.01,14,5,19,0.00
2013-4-5,54,44,31,35,30,27,86,61,37,30.21,29.96,15,6,20,0.00
2013-4-6,65,51,40,52,39,26,85,65,48,29.95,29.55,23,10,27,0.08
2013-4-7,63,51,37,46,40,34,90,70,50,29.95,29.72,14,4,18,0.00
2013-4-8,74,59,45,56,50,44,97,74,48,29.82,29.61,11,4,17,0.66
2013-4-9,57,49,42,54,47,41,97,94,87,29.87,29.70,17,8,25,1.19
2013-4-10,42,38,36,41,37,34,95,94,92,30.01,29.68,25,9,30,1.25
2013-4-11,46,40,36,45,39,34,97,94,89,29.73,29.56,15,6,24,0.20
2013-4-12,39,37,35,36,33,30,94,84,73,29.89,29.56,18,9,25,0.00
2013-4-13,48,40,32,37,32,26,90,74,58,29.99,29.89,17,7,22,0.00
2013-4-14,74,52,38,54,43,35,95,75,41,29.92,29.44,24,10,29,0.62
2013-4-15,52,46,40,51,39,31,95,79,57,30.02,29.58,20,6,22,0.03
2013-4-16,52,43,33,38,34,29,85,71,53,30.23,30.00,11,5,17,0.00
2013-4-17,48,43,40,46,36,-100,97,85,66,30.22,29.73,22,9,37,2.56
2013-4-18,58,46,36,57,44,32,98,94,85,29.74,29.37,24,9,31,0.94
2013-4-19,38,35,33,32,29,26,88,78,67,30.02,29.55,24,13,32,0.00
2013-4-20,49,38,28,30,27,24,90,66,40,30.35,30.03,9,4,16,0.00
2013-4-21,61,48,38,45,37,29,77,66,54,30.37,30.15,25,9,30,0.00
2013-4-22,67,57,48,50,44,41,88,65,43,30.18,29.92,18,7,25,0.01
2013-4-23,53,40,36,49,35,29,91,81,70,30.06,29.92,19,9,23,0.01
2013-4-24,54,42,30,40,29,26,89,63,38,30.12,30.03,14,7,25,0.03
2013-4-25,56,45,34,40,29,22,89,57,30,30.27,30.06,17,6,21,0.00
2013-4-26,67,57,44,49,42,32,81,60,47,30.21,30.12,24,9,32,0.00
2013-4-27,66,58,46,49,47,43,93,69,52,30.21,29.95,12,2,19,0.00
2013-4-28,74,61,45,52,48,42,90,65,41,29.95,29.75,10,3,15,0.00
2013-4-29,80,66,52,63,56,50,91,71,51,29.80,29.57,11,5,20,0.00
2013-4-30,88,76,64,60,55,51,85,53,31,29.81,29.58,20,9,35,0.01
2013-5-1,77,62,45,56,49,39,82,66,47,30.17,29.82,23,8,31,0.00
2013-5-2,45,39,35,39,36,33,92,88,77,30.30,30.16,22,11,25,0.39
2013-5-3,43,37,34,42,36,32,96,93,91,30.26,29.93,14,7,20,1.24
2013-5-4,68,57,43,60,54,42,97,90,71,30.01,29.90,13,5,20,0.34
2013-5-5,75,63,52,58,53,48,99,73,41,30.02,29.94,8,2,12,0.01
2013-5-6,77,66,52,55,50,47,87,60,35,30.03,29.95,6,1,11,0.00
2013-5-7,82,68,53,56,49,46,81,54,31,30.01,29.93,6,1,10,0.00
2013-5-8,81,66,53,60,53,48,90,66,36,29.98,29.91,10,2,18,0.04
2013-5-9,68,62,59,63,60,57,95,90,79,29.91,29.76,14,2,14,0.26
2013-5-10,62,54,49,57,49,46,93,83,68,29.97,29.80,14,5,19,0.00
2013-5-11,55,51,43,50,36,23,92,58,32,30.12,29.89,23,10,34,0.00
2013-5-12,58,48,37,31,29,27,75,50,32,30.20,30.09,14,6,24,0.00
2013-5-13,71,56,36,46,38,30,84,53,30,30.15,29.85,13,3,17,0.00
2013-5-14,95,77,57,65,57,45,82,52,30,29.84,29.53,21,8,28,0.00
2013-5-15,84,74,65,56,49,44,56,42,27,29.82,29.60,15,5,20,0.00
2013-5-16,84,73,57,57,51,48,75,48,30,29.88,29.78,14,3,16,0.00
2013-5-17,82,72,63,64,60,57,92,68,49,29.91,29.82,13,4,18,0.00
2013-5-18,84,73,60,67,63,58,94,73,53,29.94,29.80,16,5,21,0.00
2013-5-19,84,74,64,73,66,59,95,78,56,29.82,29.51,23,7,45,0.42
2013-5-20,81,71,62,65,62,59,96,74,52,29.64,29.53,28,7,28,0.01
2013-5-21,74,67,62,62,58,55,93,75,54,29.63,29.54,16,6,20,0.00
2013-5-22,65,61,56,59,55,52,95,82,65,29.74,29.60,15,4,18,0.05
2013-5-23,70,60,52,58,50,41,96,71,43,30.24,29.75,19,6,20,0.02
2013-5-24,69,58,44,44,40,38,92,56,34,30.40,30.21,12,4,18,0.00
2013-5-25,59,52,48,50,48,44,94,86,57,30.31,30.18,18,8,24,0.95
2013-5-26,58,52,49,55,50,46,96,92,86,30.22,30.00,23,8,28,0.93
2013-5-27,69,61,56,66,60,55,98,95,88,30.01,29.74,16,7,21,0.05
2013-5-28,77,68,61,72,65,60,98,92,73,29.75,29.61,14,4,19,0.52
2013-5-29,83,72,64,73,66,59,92,80,67,29.83,29.68,15,6,24,0.00
2013-5-30,79,71,63,69,65,61,95,82,65,29.73,29.55,25,8,39,0.42
2013-5-31,77,69,62,67,62,59,95,80,61,29.70,29.61,19,8,27,0.00
2013-6-1,71,67,63,66,60,53,96,80,59,29.75,29.57,15,6,21,0.00
2013-6-2,65,58,51,59,48,45,89,71,52,30.02,29.76,15,7,21,0.00
2013-6-3,73,61,46,52,48,44,92,64,41,30.08,29.96,9,2,15,0.00
2013-6-4,65,61,55,58,53,49,85,75,62,30.13,29.98,11,4,14,0.06
2013-6-5,69,62,58,63,59,54,96,90,78,30.02,29.87,10,2,15,0.61
2013-6-6,70,62,57,61,59,56,97,88,64,29.92,29.84,9,2,13,0.00
2013-6-7,71,62,55,58,56,53,96,81,58,29.96,29.88,8,2,9,0.00
2013-6-8,76,67,55,60,56,53,96,71,47,29.91,29.84,9,3,13,0.00
2013-6-9,68,66,61,64,60,55,93,83,67,29.84,29.70,11,5,19,0.06
2013-6-10,79,67,59,64,62,57,98,83,58,29.84,29.71,9,2,13,0.01
2013-6-11,88,74,60,71,66,58,96,77,56,29.88,29.73,10,3,17,0.00
2013-6-12,88,78,69,75,70,66,92,78,62,29.83,29.54,18,6,27,0.08
2013-6-13,82,73,62,67,61,57,94,70,43,29.98,29.67,17,5,22,0.00
2013-6-14,80,70,60,62,59,56,89,71,52,30.07,29.84,14,5,19,0.00
2013-6-15,80,73,65,72,67,62,95,81,67,29.97,29.76,16,6,30,0.11
2013-6-16,87,77,67,69,61,49,94,63,28,29.90,29.85,13,4,16,0.00
2013-6-17,90,77,62,61,58,54,83,53,31,29.91,29.80,13,3,20,0.00
2013-6-18,80,72,62,61,58,56,85,65,48,30.00,29.85,13,5,15,0.00
2013-6-19,86,73,58,62,57,50,80,60,41,30.07,29.97,12,4,15,0.00
2013-6-20,91,79,64,68,63,58,81,61,42,30.04,29.91,24,6,24,0.00
2013-6-21,84,76,65,72,69,63,95,78,64,30.06,29.83,15,7,26,1.98
2013-6-22,92,81,69,77,73,67,92,77,61,29.96,29.79,20,7,28,0.16
2013-6-23,86,77,70,74,68,64,90,74,50,29.94,29.77,16,6,32,0.00
2013-6-24,73,69,67,71,65,-100,97,92,80,29.97,29.79,14,4,25,1.50
2013-6-25,88,77,68,77,72,66,98,84,66,29.84,29.68,15,5,20,0.06
2013-6-26,88,77,66,78,71,65,98,84,67,29.74,29.63,23,4,32,1.39
2013-6-27,85,78,69,72,68,62,91,71,53,29.82,29.73,16,5,22,0.00
2013-6-28,82,75,67,64,62,60,84,64,51,29.78,29.65,24,8,27,0.00
2013-6-29,76,68,64,65,63,61,94,84,65,29.81,29.63,16,7,25,0.20
2013-6-30,79,69,59,61,58,55,89,70,48,30.02,29.81,11,5,19,0.00
2013-7-1,80,70,57,57,55,53,86,62,41,30.07,30.02,14,4,21,0.00
2013-7-2,84,72,59,61,58,55,86,64,43,30.07,29.98,11,3,13,0.00
2013-7-3,82,70,56,58,55,52,91,62,36,30.04,29.96,6,2,9,0.00
2013-7-4,87,74,59,67,60,54,84,63,42,30.01,29.93,8,2,14,0.00
2013-7-5,88,76,63,67,63,60,92,67,45,29.98,29.90,15,4,19,0.00
2013-7-6,91,76,65,69,66,62,92,72,46,29.96,29.86,13,4,18,0.00
2013-7-7,90,80,68,74,69,65,91,71,55,29.91,29.83,15,5,20,0.00
2013-7-8,90,82,76,76,72,68,83,71,62,29.91,29.84,12,5,16,0.00
2013-7-9,88,80,72,78,75,71,97,85,68,29.93,29.80,16,3,20,1.31
2013-7-10,81,76,68,77,65,58,91,71,49,29.99,29.82,15,5,18,0.00
2013-7-11,83,72,60,63,60,57,90,68,45,30.08,29.99,8,2,12,0.00
2013-7-12,84,73,60,61,59,56,87,65,40,30.08,29.99,13,3,18,0.00
2013-7-13,79,70,62,68,62,58,87,77,63,30.08,30.01,14,3,14,0.00
2013-7-14,87,76,63,70,65,60,91,71,46,30.14,30.06,15,3,18,0.00
2013-7-15,90,80,70,76,72,67,94,77,58,30.19,30.11,12,3,17,0.00
2013-7-16,93,84,74,76,74,72,95,75,55,30.21,30.16,10,3,14,0.00
2013-7-17,94,85,75,76,74,72,91,71,53,30.24,30.11,6,2,10,0.00
2013-7-18,93,85,74,75,73,70,94,69,51,30.12,29.87,18,4,19,0.00
2013-7-19,92,84,74,75,70,66,76,64,53,29.87,29.73,17,7,21,0.00
2013-7-20,90,76,64,68,64,60,89,70,46,29.89,29.81,8,3,12,0.00
2013-7-21,85,74,66,72,67,62,93,77,56,29.87,29.77,11,2,17,0.00
2013-7-22,90,74,62,75,67,60,97,81,58,29.82,29.66,19,4,37,0.41
2013-7-23,79,70,62,65,61,57,92,74,50,29.95,29.73,11,4,16,0.00
2013-7-24,80,68,56,60,58,54,93,72,47,30.03,29.95,6,1,9,0.00
2013-7-25,84,72,60,67,62,57,94,74,51,30.03,29.93,14,4,17,1.33
2013-7-26,78,69,62,69,62,56,96,80,52,30.01,29.88,17,6,24,0.25
2013-7-27,65,59,53,56,51,47,91,75,56,29.99,29.93,15,6,20,0.00
2013-7-28,70,62,54,54,52,49,85,70,55,30.03,29.89,11,4,16,0.00
2013-7-29,79,66,52,59,55,50,93,70,48,30.12,30.03,8,2,12,0.00
2013-7-30,67,66,64,65,62,58,96,88,77,30.08,30.00,9,4,13,0.00
2013-7-31,81,72,64,68,65,63,98,82,60,30.05,29.95,10,4,16,0.00
2013-8-1,84,73,62,67,62,58,93,73,46,30.02,29.85,8,2,12,0.01
2013-8-2,85,73,65,68,65,63,92,77,54,29.94,29.82,8,3,17,0.06
2013-8-3,80,70,58,63,59,55,94,70,44,30.12,29.94,9,3,13,0.01
2013-8-4,82,70,56,60,57,53,91,66,43,30.16,30.04,7,2,12,0.00
2013-8-5,77,68,61,70,64,57,95,86,77,30.03,29.80,11,4,20,1.06
2013-8-6,88,77,67,75,71,66,98,82,59,29.84,29.73,15,3,34,0.01
2013-8-7,81,74,64,70,67,61,92,79,62,29.94,29.72,13,4,19,0.00
2013-8-8,83,71,59,67,62,56,91,76,51,29.98,29.91,8,2,11,0.00
2013-8-9,80,71,64,68,64,60,94,77,57,30.05,29.94,9,3,15,0.00
2013-8-10,79,70,57,63,59,54,89,70,47,30.14,30.06,9,2,14,0.00
2013-8-11,83,74,64,68,64,60,88,72,55,30.09,29.94,10,3,18,0.00
2013-8-12,81,72,64,68,64,59,93,77,50,29.98,29.90,11,4,14,0.01
2013-8-13,75,66,56,61,56,51,94,72,46,30.14,29.97,9,3,14,0.00
2013-8-14,79,64,51,57,52,47,93,67,36,30.20,30.09,4,0,7,0.00
2013-8-15,79,67,58,59,55,52,91,69,43,30.13,30.05,7,1,12,0.00
2013-8-16,80,68,53,61,57,51,95,71,48,30.16,30.10,8,2,10,0.00
2013-8-17,81,70,58,63,58,54,89,69,44,30.18,30.10,7,2,15,0.00
2013-8-18,83,70,56,63,59,53,93,70,42,30.17,30.04,9,2,14,0.00
2013-8-19,83,72,60,67,63,58,94,75,51,30.06,29.96,13,3,16,0.00
2013-8-20,88,76,64,70,67,62,94,75,52,30.01,29.91,19,4,22,0.00
2013-8-21,90,79,70,73,69,65,85,72,54,29.97,29.89,13,4,21,0.00
2013-8-22,80,74,68,70,68,66,92,82,69,30.06,29.94,9,3,15,0.04
2013-8-23,83,72,61,69,65,60,97,79,60,30.11,30.03,13,4,15,0.01
2013-8-24,89,76,65,75,68,59,85,76,62,30.15,30.05,12,5,19,0.00
2013-8-25,92,81,71,73,69,65,89,70,46,30.14,30.03,17,6,21,0.00
2013-8-26,95,83,70,76,70,65,86,67,48,30.07,29.90,12,5,17,0.00
2013-8-27,96,86,75,74,72,70,84,64,48,29.91,29.77,15,7,23,0.00
2013-8-28,94,83,75,81,75,69,91,76,62,29.95,29.82,9,4,13,0.00
2013-8-29,94,82,73,78,74,71,96,79,53,29.99,29.87,11,3,15,0.00
2013-8-30,99,85,74,78,74,71,98,73,42,29.88,29.69,9,3,14,0.00
2013-8-31,87,77,71,73,71,68,91,81,62,29.78,29.70,12,4,16,0.00
2013-9-1,85,75,65,72,66,60,97,77,50,29.85,29.71,13,5,21,0.00
2013-9-2,74,65,55,60,57,52,94,76,54,30.00,29.86,12,5,20,0.00
2013-9-3,80,64,49,58,54,48,95,72,41,30.08,29.99,7,1,10,0.01
2013-9-4,88,72,53,69,60,50,93,70,49,30.10,30.02,9,2,12,0.00
2013-9-5,87,76,65,71,68,63,94,77,58,30.13,30.07,8,3,13,0.00
2013-9-6,89,75,60,66,62,56,88,66,41,30.12,29.91,11,4,15,0.00
2013-9-7,96,79,68,75,68,61,84,69,46,29.92,29.79,8,3,14,0.00
2013-9-8,81,75,71,72,70,67,91,84,72,29.94,29.81,21,7,24,0.00
2013-9-9,99,83,68,74,69,65,97,66,37,29.84,29.72,16,6,22,0.00
2013-9-10,97,86,77,69,65,63,64,51,33,29.92,29.80,21,7,27,0.00
2013-9-11,86,76,68,70,67,63,88,73,55,30.02,29.91,9,2,14,0.01
2013-9-12,76,68,56,64,54,48,85,65,38,30.11,29.98,22,6,24,0.00
2013-9-13,72,59,48,48,46,44,90,65,39,30.21,30.09,9,3,12,0.00
2013-9-14,75,60,44,49,45,39,86,60,37,30.15,29.93,13,4,16,0.00
2013-9-15,65,59,54,62,55,48,95,85,60,30.19,29.88,11,4,17,0.52
2013-9-16,68,58,52,54,51,47,96,80,58,30.36,30.19,10,3,13,0.01
2013-9-17,67,59,49,61,54,47,93,84,73,30.28,30.01,17,5,17,0.01
2013-9-18,88,72,62,73,66,60,95,81,59,30.01,29.76,14,6,22,0.26
2013-9-19,89,76,66,72,68,65,97,78,54,29.80,29.64,20,6,30,0.96
2013-9-20,67,62,55,66,56,50,97,82,69,29.89,29.75,16,6,19,0.04
2013-9-21,68,57,47,51,49,45,93,75,52,29.96,29.88,13,4,17,0.00
2013-9-22,74,60,47,54,50,45,95,73,49,30.01,29.90,9,3,15,0.01
2013-9-23,74,61,48,54,50,46,92,71,47,30.01,29.90,15,5,19,0.00
2013-9-24,74,61,50,57,52,47,90,72,49,29.94,29.84,13,5,22,0.00
2013-9-25,77,63,51,57,53,49,93,71,48,29.94,29.85,9,3,14,0.00
2013-9-26,84,68,54,64,58,51,91,71,49,29.96,29.89,18,5,19,0.00
2013-9-27,84,70,56,65,58,52,86,68,48,30.02,29.90,15,5,24,0.00
2013-9-28,74,64,53,66,58,52,95,82,64,29.98,29.79,16,6,26,0.37
2013-9-29,73,59,45,55,49,44,97,72,40,30.06,29.94,9,2,14,0.01
2013-9-30,76,62,47,58,50,44,90,68,42,29.94,29.75,17,5,24,0.00
2013-10-1,83,69,60,62,59,50,94,72,48,29.94,29.79,19,5,19,0.00
2013-10-2,83,69,56,63,54,44,82,60,35,30.03,29.86,16,4,21,0.00
2013-10-3,80,71,63,70,66,61,97,84,67,29.86,29.73,16,3,18,0.00
2013-10-4,76,68,62,72,66,61,97,91,84,29.93,29.75,24,4,36,1.30
2013-10-5,72,63,48,68,56,40,93,77,52,29.84,29.74,10,3,19,0.00
2013-10-6,50,46,42,45,42,39,94,85,67,29.81,29.70,12,3,17,0.07
2013-10-7,73,58,45,50,47,43,95,71,35,30.04,29.81,14,4,23,0.00
2013-10-8,78,61,46,52,48,44,93,65,34,30.09,29.99,14,4,22,0.00
2013-10-9,74,61,48,52,48,45,91,65,40,30.13,30.04,10,2,15,0.00
2013-10-10,77,60,45,57,50,42,91,71,47,30.10,29.94,10,2,18,0.00
2013-10-11,76,66,54,61,56,51,94,72,52,29.94,29.78,23,6,28,0.00
2013-10-12,70,61,50,60,45,36,85,58,36,30.18,29.79,16,6,24,0.00
2013-10-13,66,52,39,41,36,33,82,57,34,30.42,30.19,9,2,10,0.00
2013-10-14,64,52,38,44,39,33,82,64,47,30.38,29.98,18,6,24,0.00
2013-10-15,60,55,50,58,48,42,95,78,61,29.96,29.78,15,8,24,0.13
2013-10-16,50,48,47,47,45,44,94,88,82,29.96,29.84,12,6,22,0.00
2013-10-17,60,51,45,45,40,36,91,70,41,29.94,29.80,12,3,17,0.00
2013-10-18,51,46,43,43,37,33,88,70,50,29.99,29.85,16,5,21,0.00
2013-10-19,54,45,39,40,36,32,86,73,55,29.93,29.77,15,5,21,0.00
2013-10-20,58,47,36,48,39,32,88,76,62,29.85,29.69,11,4,17,0.00
2013-10-21,47,40,34,40,29,24,82,66,50,30.01,29.85,15,5,24,0.00
2013-10-22,39,34,28,36,31,24,95,89,78,30.04,29.93,8,3,11,0.15
2013-10-23,42,36,30,35,30,26,92,79,54,30.10,30.02,14,5,16,0.02
2013-10-24,41,36,32,27,25,24,77,65,52,30.36,30.10,14,4,18,0.01
2013-10-25,54,41,26,33,28,23,92,64,39,30.41,30.01,20,6,27,0.00
2013-10-26,52,45,37,36,31,28,73,59,46,30.11,29.89,21,8,24,0.00
2013-10-27,58,42,27,34,30,24,89,65,40,30.10,29.89,10,3,17,0.00
2013-10-28,54,43,36,41,35,30,83,74,62,30.33,30.00,16,6,23,0.00
2013-10-29,58,47,38,43,38,32,89,74,55,30.33,30.06,14,6,21,0.00
2013-10-30,59,54,51,58,52,43,98,93,74,30.06,29.66,13,4,20,0.47
2013-10-31,62,50,42,61,49,39,97,95,88,29.64,29.37,12,6,17,0.07
2013-11-1,51,45,42,43,41,38,93,84,71,29.78,29.45,13,6,16,0.00
2013-11-2,50,42,34,39,34,29,89,73,50,30.15,29.79,16,6,23,0.00
2013-11-3,54,43,32,37,33,28,92,71,52,30.23,30.06,17,6,23,0.00
2013-11-4,53,50,46,47,42,35,86,75,64,30.14,29.98,19,6,24,0.01
2013-11-5,56,51,47,55,49,45,97,93,86,30.18,29.79,21,5,28,0.51
2013-11-6,58,42,31,57,36,26,96,79,52,30.24,29.72,18,8,25,0.08
2013-11-7,46,36,28,34,29,24,88,77,56,30.29,30.23,13,5,19,0.00
2013-11-8,51,39,25,39,30,22,91,71,48,30.29,29.79,20,6,32,0.00
2013-11-9,55,48,39,41,38,31,76,68,58,30.22,29.80,26,9,27,0.00
2013-11-10,48,40,29,33,30,26,87,71,57,30.39,30.17,12,5,20,0.00
2013-11-11,46,34,19,36,27,13,93,75,63,30.65,30.08,18,8,23,0.00
2013-11-12,28,20,13,16,13,9,84,73,55,30.83,30.65,10,4,15,0.00
2013-11-13,46,33,19,21,16,13,77,54,31,30.65,30.09,18,8,28,0.00
2013-11-14,50,42,34,31,27,21,67,58,47,30.09,29.89,14,6,21,0.00
2013-11-15,57,46,34,38,34,28,81,65,46,29.93,29.79,12,4,17,0.00
2013-11-16,62,53,40,58,49,35,96,89,80,29.79,29.37,18,8,34,0.29
2013-11-17,58,49,41,56,46,35,97,88,75,29.85,29.23,24,8,28,0.78
2013-11-18,42,37,29,35,30,25,87,76,60,30.30,29.86,18,7,25,0.00
2013-11-19,44,34,24,33,28,21,92,77,59,30.33,30.15,12,5,22,0.00
2013-11-20,39,37,36,37,33,29,95,83,72,30.15,29.99,14,7,24,0.18
2013-11-21,42,37,32,40,36,31,97,94,86,30.33,30.06,12,4,17,0.04
2013-11-22,32,27,18,31,23,12,95,84,71,30.58,30.34,18,8,22,0.00
2013-11-23,21,16,10,16,9,5,83,74,62,30.82,30.55,20,8,27,0.00
2013-11-24,28,18,7,13,8,4,92,66,41,30.79,30.34,14,5,21,0.00
2013-11-25,34,29,23,28,24,13,91,81,62,30.34,30.09,17,7,21,0.01
2013-11-26,32,24,13,27,16,6,88,72,55,30.32,30.10,19,7,27,0.00
2013-11-27,25,17,9,13,9,4,81,71,56,30.39,30.20,10,4,12,0.00
2013-11-28,30,23,16,21,16,11,84,75,67,30.54,30.13,14,4,17,0.00
2013-11-29,34,24,11,23,18,8,89,77,60,30.60,30.32,13,4,18,0.00
2013-11-30,49,36,27,35,29,22,92,76,58,30.31,30.05,10,4,14,0.00
2013-12-1,44,35,27,33,30,24,92,82,64,30.16,29.95,6,2,10,0.00
2013-12-2,41,37,31,37,34,29,94,89,82,29.95,29.63,12,5,18,0.02
2013-12-3,43,40,37,42,39,36,98,97,94,29.66,29.56,15,4,17,0.00
2013-12-4,50,40,24,49,39,21,99,96,86,29.83,29.43,20,6,27,0.03
2013-12-5,23,17,12,20,10,5,87,76,69,30.39,29.83,23,10,31,0.00
2013-12-6,15,10,5,6,3,-1,79,74,65,30.68,30.38,14,7,17,0.00
2013-12-7,15,7,0,5,0,-5,81,72,56,30.81,30.64,12,4,15,0.00
2013-12-8,21,18,12,19,12,4,92,81,66,30.62,30.03,18,6,21,0.01
2013-12-9,19,6,-4,17,2,-8,92,81,68,30.30,30.03,16,6,23,0.00
2013-12-10,17,13,-4,13,6,-8,87,74,66,30.31,30.02,19,7,34,0.00
2013-12-11,17,6,-2,15,0,-7,90,78,64,30.66,30.28,16,5,25,0.00
2013-12-12,22,12,-3,15,6,-7,87,77,70,30.61,30.23,17,4,21,0.00
2013-12-13,27,20,10,22,16,7,90,85,78,30.22,30.05,13,5,18,0.00
2013-12-14,24,21,15,20,18,10,92,86,81,30.12,30.07,15,7,21,0.00
2013-12-15,15,11,8,11,5,2,87,77,69,30.17,30.10,18,5,21,0.00
2013-12-16,22,16,12,20,13,8,92,87,82,30.15,30.03,10,4,12,0.00
2013-12-17,35,26,18,27,20,15,92,78,65,30.19,30.05,22,8,29,0.01
2013-12-18,44,29,16,31,22,13,90,75,55,30.18,29.77,12,3,22,0.00
2013-12-19,36,31,25,31,28,23,95,90,80,29.90,29.79,15,4,18,0.00
2013-12-20,32,26,24,30,24,22,95,94,92,29.89,29.79,12,4,18,0.00
2013-12-21,28,26,24,27,24,23,95,94,91,29.89,29.71,11,4,14,0.00
2013-12-22,28,22,9,27,20,6,95,91,85,30.27,29.73,13,7,19,0.00
2013-12-23,8,0,-4,4,-5,-9,85,80,75,30.59,30.28,14,7,22,0.00
2013-12-24,14,0,-10,11,-4,-14,89,79,72,30.62,30.31,11,4,16,0.00
2013-12-25,26,22,15,24,19,12,93,90,81,30.30,30.18,15,6,24,0.00
2013-12-26,35,25,17,28,21,14,91,85,75,30.25,30.13,7,2,13,0.04
2013-12-27,42,31,18,31,26,16,93,80,65,30.27,30.08,14,4,21,0.02
2013-12-28,48,40,30,35,31,26,89,73,59,30.09,29.79,15,6,21,0.00
2013-12-29,35,14,-3,31,9,-9,92,81,71,30.35,29.81,27,11,29,0.00
2013-12-30,6,0,-7,4,-4,-11,92,80,68,30.38,30.25,8,3,10,0.00
2013-12-31,10,5,-4,6,-1,-100,87,83,82,30.41,30.29,12,-18,14,0.00
2014-1-1,12,9,6,8,5,2,86,83,78,30.36,30.29,11,6,17,0.00
2014-1-2,10,6,-4,4,0,-9,83,77,72,30.52,30.33,12,6,17,0.00